This is the latest recevied weather packets stored in our database for station/object HG8GL-6. If no packets are shown the sender has not sent any weather packets the latest 10 day(s).
| Time | Temp. | Humidity | Pressure | Rain* | Wind** | Luminosity | Snow |
|---|---|---|---|---|---|---|---|
| 1788605739 | 30.56° C | 30% | 1018 hPa | 0 mm | - | - | - |
| 1788605109 | 30.56° C | 31% | 1018 hPa | 0 mm | - | - | - |
| 1788604509 | 30° C | 31% | 1018 hPa | 0 mm | - | - | - |
| 1788603879 | 29.44° C | 34% | 1018 hPa | 0 mm | - | - | - |
| 1788603249 | 29.44° C | 35% | 1018 hPa | 0 mm | - | - | - |
| 1788602649 | 30° C | 34% | 1018 hPa | 0 mm | - | - | - |
| 1788602019 | 31.11° C | 33% | 1018 hPa | 0 mm | - | - | - |
| 1788601419 | 31.67° C | 33% | 1017 hPa | 0 mm | - | - | - |
| 1788600819 | 32.22° C | 32% | 1017 hPa | 0 mm | - | - | - |
| 1788600189 | 32.22° C | 33% | 1017 hPa | 0 mm | - | - | - |
| 1788599589 | 31.67° C | 33% | 1017 hPa | 0 mm | - | - | - |
| 1788598989 | 31.67° C | 34% | 1017 hPa | 0 mm | - | - | - |
| 1788598359 | 31.67° C | 34% | 1016.1 hPa | 0 mm | - | - | - |
| 1788597759 | 31.67° C | 34% | 1016 hPa | 0 mm | - | - | - |
| 1788597129 | 31.67° C | 34% | 1016 hPa | 0 mm | - | - | - |
| 1788596529 | 31.11° C | 35% | 1016.8 hPa | 0 mm | - | - | - |
| 1788595899 | 30.56° C | 35% | 1017 hPa | 0 mm | - | - | - |
| 1788595269 | 30° C | 37% | 1016 hPa | 0 mm | - | - | - |
| 1788594669 | 29.44° C | 39% | 1015 hPa | 0 mm | - | - | - |
| 1788594039 | 28.89° C | 39% | 1015 hPa | 0 mm | - | - | - |
| 1788593409 | 28.33° C | 40% | 1015 hPa | 0 mm | - | - | - |
| 1788592820 | 27.78° C | 42% | 1015 hPa | 0 mm | - | - | - |
| 1788592209 | 27.22° C | 43% | 1015 hPa | 0 mm | - | - | - |
| 1788591579 | 26.11° C | 44% | 1015 hPa | 0 mm | - | - | - |
| 1788590979 | 25.56° C | 45% | 1015 hPa | 0 mm | - | - | - |
* Rain latest hour (hover to see other rain measurements)
** Current wind speed in m/s (hover to see current wind gust speed)